TUA227 UTAT-UTAM

Flight info

Callsign TUA227
Flight time 0h 52m
Altitude 27000
Route DSH B801 NINOP
Aircraft B738/M-SDE2E3FGHIRWXY/LB1

Departure

Time 2026-04-23 12:01
Airport Dashoguz International Airport (UTAT)

Arrival

Time 2026-04-23 12:54
Airport Mary International Airport (UTAM)
Time Latitude Longitude Altitude Speed Heading
2026-04-23 11:45 41.76417 59.83368 283 ft 0 kts 359°
2026-04-23 11:54 41.76405 59.83368 286 ft 4 kts 359°
2026-04-23 11:54 41.76378 59.83369 287 ft 4 kts 359°
2026-04-23 11:54 41.76355 59.83369 286 ft 3 kts 360°
2026-04-23 11:55 41.76331 59.83363 286 ft 4 kts 37°
2026-04-23 11:55 41.76316 59.83337 283 ft 4 kts 77°
2026-04-23 11:55 41.76314 59.83314 285 ft 0 kts 90°
2026-04-23 11:56 41.76314 59.83320 283 ft 5 kts 90°
2026-04-23 11:57 41.76313 59.83447 283 ft 18 kts 91°
2026-04-23 11:57 41.76286 59.83596 284 ft 17 kts 145°
2026-04-23 11:57 41.76178 59.83622 283 ft 16 kts 143°
2026-04-23 11:57 41.76158 59.83761 283 ft 16 kts 90°
2026-04-23 11:58 41.76157 59.83974 283 ft 27 kts 90°
2026-04-23 11:58 41.76157 59.84218 283 ft 25 kts 90°
2026-04-23 11:58 41.76154 59.84445 283 ft 23 kts 91°
2026-04-23 11:58 41.76155 59.84657 283 ft 22 kts 90°
2026-04-23 11:59 41.76154 59.84862 283 ft 22 kts 90°
2026-04-23 11:59 41.76154 59.85105 284 ft 26 kts 90°
2026-04-23 11:59 41.76153 59.85334 283 ft 22 kts 90°
2026-04-23 11:59 41.76153 59.85531 284 ft 21 kts 90°
2026-04-23 12:00 41.76114 59.85697 285 ft 19 kts 152°
2026-04-23 12:00 41.75994 59.85677 284 ft 18 kts 233°
2026-04-23 12:00 41.75982 59.85541 285 ft 18 kts 270°
2026-04-23 12:00 41.75983 59.85044 285 ft 88 kts 270°
2026-04-23 12:01 41.75987 59.83937 285 ft 146 kts 269°
2026-04-23 12:01 41.75991 59.82507 727 ft 153 kts 267°
2026-04-23 12:01 41.75989 59.81030 1204 ft 162 kts 261°
2026-04-23 12:01 41.75616 59.79676 1849 ft 159 kts 234°
2026-04-23 12:02 41.74883 59.78528 2242 ft 176 kts 218°
2026-04-23 12:02 41.73703 59.77768 2452 ft 206 kts 197°
2026-04-23 12:02 41.72225 59.77238 2685 ft 227 kts 194°
2026-04-23 12:02 41.70660 59.76776 3106 ft 241 kts 193°
2026-04-23 12:03 41.68965 59.76223 3582 ft 252 kts 195°
2026-04-23 12:03 41.67276 59.75646 4466 ft 252 kts 195°
2026-04-23 12:03 41.65577 59.75082 5179 ft 257 kts 195°
2026-04-23 12:03 41.63818 59.74542 5852 ft 263 kts 189°
2026-04-23 12:04 41.61985 59.74806 6602 ft 271 kts 164°
2026-04-23 12:04 41.60273 59.75922 7350 ft 277 kts 152°
2026-04-23 12:04 41.58620 59.77286 8110 ft 281 kts 150°
2026-04-23 12:04 41.56964 59.78700 8887 ft 284 kts 150°
2026-04-23 12:05 41.55285 59.80136 9682 ft 288 kts 150°
2026-04-23 12:05 41.53578 59.81588 10341 ft 297 kts 150°
2026-04-23 12:05 41.52387 59.82593 10471 ft 314 kts 150°
2026-04-23 12:05 41.50463 59.84208 10658 ft 338 kts 150°
2026-04-23 12:06 41.47749 59.86477 11266 ft 353 kts 150°
2026-04-23 12:06 41.45654 59.88226 11973 ft 357 kts 150°
2026-04-23 12:06 41.42092 59.91191 13254 ft 363 kts 150°
2026-04-23 12:07 41.39218 59.93575 14202 ft 370 kts 150°
2026-04-23 12:07 41.37765 59.94778 14672 ft 372 kts 150°
2026-04-23 12:07 41.35557 59.96606 15411 ft 376 kts 150°
2026-04-23 12:07 41.33323 59.98453 16144 ft 379 kts 150°
2026-04-23 12:08 41.31066 60.00317 16857 ft 383 kts 150°
2026-04-23 12:08 41.28783 60.02202 17564 ft 388 kts 150°
2026-04-23 12:08 41.26482 60.04099 18251 ft 392 kts 150°
2026-04-23 12:08 41.24149 60.06022 18843 ft 396 kts 150°
2026-04-23 12:09 41.21795 60.07960 19454 ft 400 kts 150°
2026-04-23 12:09 41.19418 60.09916 20063 ft 403 kts 150°
2026-04-23 12:09 41.17020 60.11887 20658 ft 407 kts 150°
2026-04-23 12:09 41.14628 60.13851 21229 ft 411 kts 151°
2026-04-23 12:10 41.12178 60.15862 21794 ft 415 kts 151°
2026-04-23 12:10 41.09713 60.17884 22352 ft 419 kts 151°
2026-04-23 12:10 41.07218 60.19928 22914 ft 422 kts 151°
2026-04-23 12:10 41.04705 60.21979 23459 ft 426 kts 152°
2026-04-23 12:11 41.02046 60.23708 23887 ft 426 kts 162°
2026-04-23 12:11 40.99254 60.25055 24335 ft 428 kts 164°
2026-04-23 12:11 40.96422 60.26318 24761 ft 431 kts 165°
2026-04-23 12:11 40.93566 60.27579 25163 ft 435 kts 165°
2026-04-23 12:12 40.90690 60.28869 25582 ft 438 kts 165°
2026-04-23 12:12 40.87798 60.30195 26006 ft 441 kts 165°
2026-04-23 12:12 40.84932 60.31531 26486 ft 442 kts 165°
2026-04-23 12:12 40.82040 60.32892 26950 ft 443 kts 165°
2026-04-23 12:13 40.79113 60.34274 26917 ft 447 kts 165°
2026-04-23 12:13 40.76201 60.35652 26937 ft 443 kts 165°
2026-04-23 12:13 40.73313 60.37019 26932 ft 439 kts 165°
2026-04-23 12:13 40.70431 60.38379 26945 ft 440 kts 165°
2026-04-23 12:14 40.67538 60.39740 26955 ft 441 kts 165°
2026-04-23 12:14 40.64639 60.41102 26959 ft 442 kts 165°
2026-04-23 12:14 40.61744 60.42462 26942 ft 443 kts 165°
2026-04-23 12:14 40.58837 60.43826 26948 ft 443 kts 165°
2026-04-23 12:15 40.55938 60.45186 26946 ft 443 kts 165°
2026-04-23 12:15 40.53076 60.46527 26949 ft 442 kts 165°
2026-04-23 12:15 40.50178 60.47884 26951 ft 442 kts 165°
2026-04-23 12:15 40.47281 60.49239 26947 ft 441 kts 165°
2026-04-23 12:16 40.44392 60.50589 26934 ft 440 kts 165°
2026-04-23 12:16 40.41509 60.51955 26945 ft 440 kts 164°
2026-04-23 12:16 40.38643 60.53377 26943 ft 440 kts 163°
2026-04-23 12:16 40.35786 60.54824 26946 ft 440 kts 163°
2026-04-23 12:17 40.32927 60.56281 26953 ft 440 kts 163°
2026-04-23 12:17 40.30074 60.57732 26949 ft 440 kts 163°
2026-04-23 12:17 40.27216 60.59180 26933 ft 440 kts 163°
2026-04-23 12:17 40.24365 60.60618 26941 ft 439 kts 164°
2026-04-23 12:18 40.21509 60.62054 26940 ft 439 kts 164°
2026-04-23 12:18 40.18651 60.63488 26946 ft 439 kts 164°
2026-04-23 12:18 40.15790 60.64920 26950 ft 440 kts 164°
2026-04-23 12:18 40.12964 60.66333 26948 ft 440 kts 164°
2026-04-23 12:19 40.10103 60.67762 26939 ft 440 kts 164°
2026-04-23 12:19 40.07242 60.69190 26944 ft 440 kts 164°
2026-04-23 12:19 40.04377 60.70619 26947 ft 440 kts 164°
2026-04-23 12:19 40.01513 60.72046 26953 ft 440 kts 164°
2026-04-23 12:20 39.98646 60.73474 26952 ft 441 kts 164°
2026-04-23 12:20 39.95776 60.74901 26948 ft 441 kts 164°
2026-04-23 12:20 39.92907 60.76327 26943 ft 440 kts 164°
2026-04-23 12:20 39.90047 60.77748 26950 ft 440 kts 164°
2026-04-23 12:21 39.87186 60.79168 26956 ft 440 kts 164°
2026-04-23 12:21 39.84329 60.80584 26958 ft 439 kts 164°
2026-04-23 12:21 39.81478 60.81996 26955 ft 439 kts 164°
2026-04-23 12:21 39.78624 60.83408 26954 ft 439 kts 164°
2026-04-23 12:22 39.75769 60.84819 26944 ft 438 kts 164°
2026-04-23 12:22 39.72947 60.86213 26955 ft 438 kts 164°
2026-04-23 12:22 39.70097 60.87620 26958 ft 438 kts 164°
2026-04-23 12:22 39.67243 60.89026 26959 ft 438 kts 164°
2026-04-23 12:23 39.64390 60.90432 26960 ft 439 kts 164°
2026-04-23 12:23 39.61532 60.91838 26961 ft 439 kts 164°
2026-04-23 12:23 39.58677 60.93242 26943 ft 439 kts 165°
2026-04-23 12:23 39.55820 60.94646 26952 ft 439 kts 165°
2026-04-23 12:24 39.52960 60.96050 26956 ft 439 kts 165°
2026-04-23 12:24 39.50106 60.97449 26958 ft 439 kts 165°
2026-04-23 12:24 39.47242 60.98853 26959 ft 439 kts 165°
2026-04-23 12:24 39.44386 61.00251 26963 ft 439 kts 165°
2026-04-23 12:25 39.41558 61.01634 26961 ft 440 kts 165°
2026-04-23 12:25 39.38660 61.03050 26958 ft 440 kts 165°
2026-04-23 12:25 39.35795 61.04450 26967 ft 440 kts 165°
2026-04-23 12:25 39.32962 61.05832 26966 ft 439 kts 165°
2026-04-23 12:26 39.30103 61.07226 26953 ft 439 kts 165°
2026-04-23 12:26 39.27238 61.08621 26954 ft 438 kts 165°
2026-04-23 12:26 39.24378 61.10013 26944 ft 438 kts 165°
2026-04-23 12:26 39.21528 61.11399 26951 ft 437 kts 165°
2026-04-23 12:27 39.18684 61.12781 26955 ft 437 kts 165°
2026-04-23 12:27 39.15841 61.14160 26959 ft 436 kts 165°
2026-04-23 12:27 39.13036 61.15520 26960 ft 436 kts 165°
2026-04-23 12:27 39.10196 61.16896 26957 ft 436 kts 165°
2026-04-23 12:28 39.07349 61.18274 26948 ft 437 kts 165°
2026-04-23 12:28 39.04519 61.19644 26933 ft 429 kts 165°
2026-04-23 12:28 39.01747 61.20989 26582 ft 422 kts 165°
2026-04-23 12:28 38.99020 61.22309 26157 ft 416 kts 165°
2026-04-23 12:29 38.96325 61.23609 25706 ft 412 kts 165°
2026-04-23 12:29 38.93654 61.24896 25238 ft 409 kts 165°
2026-04-23 12:29 38.90997 61.26173 24776 ft 406 kts 165°
2026-04-23 12:29 38.88359 61.27442 24288 ft 403 kts 165°
2026-04-23 12:30 38.85738 61.28701 23833 ft 402 kts 165°
2026-04-23 12:30 38.83121 61.29957 23366 ft 400 kts 165°
2026-04-23 12:30 38.80523 61.31205 22847 ft 398 kts 165°
2026-04-23 12:30 38.77936 61.32446 22356 ft 394 kts 165°
2026-04-23 12:31 38.75413 61.33656 21903 ft 391 kts 165°
2026-04-23 12:31 38.72867 61.34876 21440 ft 387 kts 165°
2026-04-23 12:31 38.70354 61.36080 20968 ft 384 kts 165°
2026-04-23 12:31 38.67859 61.37273 20526 ft 381 kts 165°
2026-04-23 12:32 38.65382 61.38457 20084 ft 378 kts 164°
2026-04-23 12:32 38.62933 61.39659 19647 ft 375 kts 163°
2026-04-23 12:32 38.60511 61.40875 19210 ft 373 kts 163°
2026-04-23 12:32 38.58105 61.42090 18776 ft 371 kts 163°
2026-04-23 12:33 38.55739 61.43284 18346 ft 369 kts 163°
2026-04-23 12:33 38.53349 61.44487 17851 ft 368 kts 163°
2026-04-23 12:33 38.50976 61.45679 17377 ft 365 kts 163°
2026-04-23 12:33 38.48621 61.46860 16933 ft 362 kts 163°
2026-04-23 12:34 38.46288 61.48027 16497 ft 358 kts 163°
2026-04-23 12:34 38.43975 61.49184 16068 ft 356 kts 162°
2026-04-23 12:34 38.41680 61.50330 15650 ft 353 kts 162°
2026-04-23 12:34 38.39399 61.51468 15227 ft 350 kts 162°
2026-04-23 12:35 38.37137 61.52595 14811 ft 348 kts 162°
2026-04-23 12:35 38.34891 61.53714 14389 ft 345 kts 162°
2026-04-23 12:35 38.32659 61.54825 13968 ft 344 kts 162°
2026-04-23 12:35 38.30466 61.55916 13555 ft 342 kts 162°
2026-04-23 12:36 38.28256 61.57015 13104 ft 340 kts 162°
2026-04-23 12:36 38.26063 61.58106 12675 ft 337 kts 162°
2026-04-23 12:36 38.23879 61.59191 12251 ft 335 kts 161°
2026-04-23 12:36 38.21719 61.60263 11850 ft 332 kts 161°
2026-04-23 12:37 38.19574 61.61328 11446 ft 329 kts 161°
2026-04-23 12:37 38.17446 61.62383 11042 ft 327 kts 161°
2026-04-23 12:37 38.15335 61.63428 10654 ft 324 kts 161°
2026-04-23 12:37 38.13266 61.64454 10520 ft 313 kts 161°
2026-04-23 12:38 38.11291 61.65527 10387 ft 305 kts 156°
2026-04-23 12:38 38.09442 61.66761 10274 ft 295 kts 154°
2026-04-23 12:38 38.07682 61.68001 10181 ft 283 kts 153°
2026-04-23 12:38 38.06010 61.69185 10090 ft 270 kts 153°
2026-04-23 12:39 38.04372 61.70335 9889 ft 270 kts 154°
2026-04-23 12:39 38.02733 61.71476 9601 ft 268 kts 154°
2026-04-23 12:39 38.01102 61.72605 9302 ft 266 kts 154°
2026-04-23 12:39 37.99479 61.73723 9017 ft 265 kts 154°
2026-04-23 12:40 37.97864 61.74834 8731 ft 264 kts 154°
2026-04-23 12:40 37.96268 61.75927 8450 ft 264 kts 154°
2026-04-23 12:40 37.94658 61.77028 8182 ft 263 kts 154°
2026-04-23 12:40 37.93048 61.78127 7913 ft 263 kts 154°
2026-04-23 12:41 37.91438 61.79226 7640 ft 262 kts 154°
2026-04-23 12:41 37.89832 61.80321 7364 ft 262 kts 154°
2026-04-23 12:41 37.88230 61.81413 7090 ft 261 kts 154°
2026-04-23 12:41 37.86628 61.82503 6815 ft 261 kts 154°
2026-04-23 12:42 37.85031 61.83590 6534 ft 260 kts 154°
2026-04-23 12:42 37.83441 61.84672 6268 ft 259 kts 154°
2026-04-23 12:42 37.81857 61.85749 5976 ft 257 kts 154°
2026-04-23 12:42 37.80288 61.86815 5688 ft 255 kts 154°
2026-04-23 12:43 37.78729 61.87874 5420 ft 253 kts 154°
2026-04-23 12:43 37.77187 61.88920 5158 ft 250 kts 154°
2026-04-23 12:43 37.75661 61.89956 4906 ft 248 kts 154°
2026-04-23 12:43 37.74143 61.90986 4643 ft 246 kts 154°
2026-04-23 12:44 37.72636 61.92006 4386 ft 245 kts 153°
2026-04-23 12:44 37.71135 61.93023 4098 ft 244 kts 152°
2026-04-23 12:44 37.69648 61.94031 3839 ft 242 kts 152°
2026-04-23 12:44 37.68171 61.95030 3582 ft 239 kts 151°
2026-04-23 12:45 37.66729 61.96005 3335 ft 237 kts 151°
2026-04-23 12:45 37.65275 61.96988 3069 ft 237 kts 150°
2026-04-23 12:45 37.63835 61.97961 2803 ft 229 kts 150°
2026-04-23 12:45 37.62452 61.98773 2699 ft 213 kts 166°
2026-04-23 12:46 37.60986 61.98835 2721 ft 213 kts 179°
2026-04-23 12:46 37.59502 61.98829 2709 ft 212 kts 177°
2026-04-23 12:46 37.58035 61.98840 2709 ft 209 kts 178°
2026-04-23 12:46 37.56577 61.98859 2694 ft 208 kts 177°
2026-04-23 12:47 37.55136 61.98883 2693 ft 207 kts 176°
2026-04-23 12:47 37.53698 61.98913 2703 ft 207 kts 177°
2026-04-23 12:47 37.52256 61.98944 2703 ft 208 kts 176°
2026-04-23 12:47 37.50811 61.98977 2694 ft 207 kts 177°
2026-04-23 12:48 37.49409 61.99009 2685 ft 195 kts 177°
2026-04-23 12:48 37.48094 61.99040 2698 ft 186 kts 177°
2026-04-23 12:48 37.46801 61.99071 2700 ft 186 kts 176°
2026-04-23 12:48 37.45509 61.98928 2691 ft 190 kts 198°
2026-04-23 12:49 37.44458 61.97948 2704 ft 192 kts 233°
2026-04-23 12:49 37.44031 61.96399 2708 ft 193 kts 263°
2026-04-23 12:49 37.44138 61.94709 2692 ft 199 kts 292°
2026-04-23 12:49 37.45069 61.93513 2690 ft 194 kts 342°
2026-04-23 12:50 37.46336 61.92986 2678 ft 195 kts 327°
2026-04-23 12:50 37.47334 61.91830 2711 ft 198 kts 318°
2026-04-23 12:50 37.48358 61.90666 2709 ft 198 kts 321°
2026-04-23 12:50 37.49581 61.89991 2694 ft 191 kts
2026-04-23 12:51 37.50916 61.90012 2618 ft 195 kts
2026-04-23 12:51 37.52210 61.89924 2397 ft 177 kts
2026-04-23 12:51 37.53391 61.89874 2148 ft 162 kts
2026-04-23 12:51 37.54452 61.89839 1968 ft 147 kts
2026-04-23 12:52 37.55451 61.89802 1802 ft 143 kts
2026-04-23 12:52 37.56467 61.89747 1634 ft 146 kts
2026-04-23 12:52 37.57500 61.89717 1418 ft 149 kts
2026-04-23 12:52 37.58517 61.89695 1199 ft 148 kts
2026-04-23 12:53 37.59555 61.89663 1012 ft 151 kts
2026-04-23 12:53 37.60590 61.89627 819 ft 146 kts
2026-04-23 12:53 37.61548 61.89608 739 ft 122 kts 358°
2026-04-23 12:53 37.62182 61.89586 733 ft 61 kts 359°
2026-04-23 12:54 37.62478 61.89575 736 ft 31 kts 358°
2026-04-23 12:54 37.62577 61.89572 736 ft 12 kts
2026-04-23 12:54 37.62624 61.89654 736 ft 13 kts 86°
2026-04-23 12:54 37.62586 61.89741 736 ft 13 kts 167°
2026-04-23 12:55 37.62523 61.89745 734 ft 17 kts 178°
2026-04-23 12:55 37.62374 61.89750 735 ft 24 kts 179°
2026-04-23 12:55 37.62196 61.89756 732 ft 26 kts 179°
2026-04-23 12:55 37.62024 61.89762 734 ft 24 kts 178°
2026-04-23 12:56 37.61864 61.89768 734 ft 22 kts 178°
2026-04-23 12:56 37.61661 61.89774 738 ft 21 kts 179°
2026-04-23 12:56 37.61562 61.89777 737 ft 21 kts 178°
2026-04-23 12:56 37.61450 61.89799 739 ft 9 kts 122°
2026-04-23 12:57 37.61443 61.89879 738 ft 11 kts 88°
2026-04-23 12:57 37.61422 61.89980 737 ft 13 kts 140°
2026-04-23 12:57 37.61335 61.89998 736 ft 13 kts 179°
2026-04-23 12:57 37.61284 61.90051 736 ft 9 kts 88°
2026-04-23 12:58 37.61285 61.90070 736 ft 0 kts 88°